Regional Weather Roundup
Issued by NWS Wakefield, VA

Home | Current Version | Previous Version | Text Only | Print | Product List | Glossary Off
Versions: 1 2 3 4 5 6 7 8 9 10 11 12 13 14 15 16 17 18 19 20 21 22 23 24 25 26 27

000
ASUS41 KAKQ 280615
RWRAKQ

REGIONAL WEATHER ROUNDUP
NATIONAL WEATHER SERVICE WAKEFIELD VA
200 AM EDT SUN MAY 28 2017

Note: "fair" indicates few or no clouds below 12,000 feet with no
significant weather and/or obstructions to visibility. * = Denotes
station may not report precipitation (e.g., rain,snow,etc.),
thunder or fog.

VAZ042-051-052>054-056-280700-
NORTHERN VIRGINIA

CITY           SKY/WX    TMP DP  RH WIND       PRES   REMARKS
WASH NATIONAL  CLOUDY    64  62  93 NE5       29.89F
DULLES         PTCLDY    61  59  93 CALM      29.89S
FORT BELVOIR   CLOUDY    61  59  91 CALM      29.88F
QUANTICO       CLOUDY    66  63  90 NE8       29.89S
FREDERICKSBRG* CLOUDY    63  63 100 CALM      29.87F
STAFFORD*      CLOUDY    59  59 100 CALM      29.92S
WARRENTON      CLOUDY    62  59  91 CALM      29.88S FOG
CULPEPER*      CLOUDY    63  62  99 N3        29.89F FOG
MANASSAS*      CLOUDY    63  60  90 NE3       29.88F
LEESBURG*      CLOUDY    61  61 100 CALM      29.90S FOG
WINCHESTER     CLOUDY    59  59 100 CALM      29.88F FOG
FRONT ROYAL*   CLOUDY    63  63 100 S3        29.88S
LURAY*         PTCLDY    61  61 100 SE3       29.89S
$$

VAZ048-049-060>072-079>083-280700-
CENTRAL AND SOUTH CENTRAL VIRGINIA

CITY           SKY/WX    TMP DP  RH WIND       PRES   REMARKS
RICHMOND       CLOUDY    66  64  93 CALM      29.87F
CHESTERFIELD*  NOT AVBL
PETERSBURG*    PTCLDY    62  61  97 CALM      29.87F
HANOVER        CLOUDY    63  61  93 CALM      29.89S FOG
TAPPAHANNOCK*  CLOUDY    63  63 100 CALM      29.89S
QUINTON*       FOG       64  64 100 CALM      29.87F VSB 1
CHARLOTTSVILLE CLOUDY    65  63  93 CALM      29.88S
GORDONSVILLE*  CLOUDY    62  62 100 CALM      29.88F
ORANGE*        CLOUDY    61  61 100 CALM      29.89S
LOUISA*        CLOUDY    64  64 100 CALM      29.87F
BUMPASS*       FAIR      61  61 100 W6        29.88F
FARMVILLE*     CLOUDY    68  65  90 NE5       29.87F FOG
CREWE*         FAIR      64  60  87 CALM      29.87F
FORT PICKETT*  FAIR      64  60  88 W3        29.87F
CHASE CITY*    FAIR      69  68  94 CALM      29.86F
CLARKSVILLE*   CLOUDY    70  70 100 CALM      29.85F
SOUTH HILL*    CLOUDY    68  65  90 CALM      29.91F
LAWRENCEVILLE* FAIR      68  64  85 CALM      29.86F
EMPORIA*       MOCLDY    63  63 100 CALM      29.87F
$$

VAZ088>098-280700-
SOUTHEAST VIRGINIA

CITY           SKY/WX    TMP DP  RH WIND       PRES   REMARKS
NORFOLK        CLOUDY    68  61  78 CALM      29.86F
VIRGINIA BEACH PTCLDY    65  60  84 CALM      29.85F
NORFOLK NAVAL  PTCLDY    68  61  78 CALM      29.87F
WEST POINT*    CLEAR     63  62  97 CALM      29.89S
SALUDA*        MOCLDY    65  65 100 E3        29.87F
NEWPORT NEWS   PTCLDY    64  63  96 CALM      29.86F FOG
LANGLEY AFB    CLOUDY    65  64  95 CALM      29.85F
FORT EUSTIS    PTCLDY    65  63  92 CALM      29.84F
WILLIAMSBURG*  PTCLDY    66  66 100 CALM      29.88F
HR EXEC AP*    FAIR      63  57  82 E3        29.85F
FRANKLIN*      CLOUDY    66  64  92 N3        29.87R
US460-WAKEFLD  NOT AVBL
$$

VAZ020-022-025-037-045-280700-
WEST CENTRAL AND SOUTHWEST VIRGINIA

CITY           SKY/WX    TMP DP  RH WIND       PRES   REMARKS
STAUNTON*      PTCLDY    62  60  93 CALM      29.92F
WAYNESBORO*    CLOUDY    63  63 100 CALM      29.91S
HOT SPRINGS VA CLOUDY    63  59  88 CALM      29.99F
LYNCHBURG      CLOUDY    67  64  90 NE7       29.90F
DANVILLE       PTCLDY    69  65  86 CALM      29.86F
SOUTH BOSTON*    N/A     68  66  95 N3        29.87S
MARTINSVILLE   CLOUDY    65  60  82 SW5       29.91F
ROANOKE        CLOUDY    71  64  78 S6        29.91S
BLACKSBURG     MOCLDY    64  62  94 CALM      29.97S
DUBLIN*        CLOUDY    64  59  85 S6        29.95F
MARION*        CLOUDY    61  58  91 CALM      29.97F
HILLSVILLE*    CLOUDY    60  56  86 CALM      29.96F
RICHLANDS*     FAIR      60  60  99 CALM      29.92F
WISE*          CLOUDY    61  61 100 CALM      29.95R
ABINGDON*      RAIN      63  63 100 SW3       29.90F
$$

MDZ021>025-VAZ099-100-280700-
SOUTHERN MARYLAND AND THE DELMARVA PENINSULA

CITY           SKY/WX    TMP DP  RH WIND       PRES   REMARKS
PATUXENT RIVER CLOUDY    64  61  90 E9        29.87F
BAY BRIDGE APT PTCLDY    61  59  94 SE3       29.89F
LEONARDTOWN    CLOUDY    63  61  94 E3        29.89F
DOVER          MOCLDY    61  61 100 S3        29.89F
GEORGETOWN     CLOUDY    62  57  83 NE5       29.90F
EASTON         CLEAR     61  56  84 E5        29.92F
CAMBRIDGE      MOCLDY    63  57  82 SE7       29.88F
SALISBURY      CLEAR     59  57  93 SE5       29.88F
OCEAN CITY     PTCLDY    61  56  83 E3        29.90F
WALLOPS ISLAND PTCLDY    63  60  90 E12       29.88F
ACCOMACK*      CLEAR     62  60  93 CALM      29.87S
$$

NCZ012>017-030>032-280700-
NORTH CENTRAL AND EASTERN NORTH CAROLINA

CITY           SKY/WX    TMP DP  RH WIND       PRES   REMARKS
ROANOKE RAPIDS FAIR      70  63  78 S3        29.86F
RALEIGH        LGT RAIN  71  68  90 NE9       29.81F
ELIZABETH CITY MOCLDY    68  67  96 E3        29.85F
AHOSKIE*       NOT AVBL
EDENTON*       MOCLDY    74  66  77 S8        29.87F
CURRITUCK*     NOT AVBL
KILL DEVIL HLS MOCLDY    68  68  99 CALM      29.84F
MANTEO         MOCLDY    70  64  83 SW5       29.86S
CAPE HATTERAS  CLEAR     72  65  78 S3        29.89F
TARBORO*       NOT AVBL
GOLDSBORO      MOCLDY    73  72  98 CALM      29.86F
WASHINGTON     CLOUDY    71  69  93 E3        29.88F
GREENVILLE     MOCLDY    73  70  88 CALM      29.89F
NEW BERN       PTCLDY    71  69  93 SW6       29.89F
WILMINGTON     MOCLDY    74  71  91 SW5       29.89F
$$

VAZ048-280700-
ELSEWHERE

CITY           SKY/WX    TMP DP  RH WIND       PRES   REMARKS
HARRISBURG PA  PTCLDY    59  58  96 NE3       29.89S
BALTIMORE      PTCLDY    62  60  93 E3        29.88F
ANNAPOLIS      CLEAR     64  63  96 CALM      29.88F
ANDREWS AFB    CLOUDY    60  59  96 CALM      29.88F
PHILADELPHIA   MOCLDY    64  60  87 CALM      29.91S
HENDERSON NC   CLOUDY    69  64  86 SW5       29.86F
GREENSBORO     CLOUDY    66  66 100 SW7       29.88F
ROCKY MOUNT    CLOUDY    72  68  87 SW3       29.86F
$$

VAZ100-280700-
MARINE

STATION/POSITION TIME  TEMP    WIND        PRES    WAVE   SWELL
                       AIR SEA DIR/SP/G            HT/PER HT/PER
                 (UTC) (F)     (DEG/KT/KT) (MB)    (FT/S) (FT/S)
CAPE MAY NJ      0548   61 63   CALM  /  1 1012.2F
LEWES DE         0548   63 65  170/  2/  3 1012.3F
15NM E FENWICK I 0550   61 60  120/  4/  6 1012.9F   2/ 8   2/ 8
WACHAPREAGUE VA  0548   65 71   50/  9/ 12 1011.3F
THOMAS POINT MD  0600   64 65  100/  7/  8   N/A
GOOSES REEF MD   0600   67 63  130/ 10/ 12 1012.2
COVE POINT MD    0548   66     130/ 10/ 13 1012.2F
SOLOMONS ISLAND  0548   67 68  110/ 10/ 12   N/A
BISHOPS HEAD MD  0548   65 72   80/  8/ 11 1011.9F
PINEY POINT MD   0548          110/  9/ 10   N/A
POTOMAC MD       0550   66     100/ 10/ 12 1010.7F
CAMBRIDGE MD     0542   64 71                N/A
LEWISETTA VA     0548   67 70  110/  9/ 11 1011.5F
RAPPAHANNOCK LGT 0548           70/  6/  8 1012.0F
STINGRAY PT      0550   67     110/  8/  8 1011.3F
YORK RVR RNG VA  0548   68      50/  6/  7 1010.6F
YORKTOWN VA      0548   69 70   60/  4/  5 1010.9F
JAMESTOWN VA     0550   68     280/  2/  4   N/A
DOMINION TERM VA 0548   69      10/  2/  2 1011.2F
KIPTOPEKE VA     0548      68  310/  3/  3   N/A
CHES BAY BRIDGE  0548   69 66  250/  7/  8 1011.0F
CAPE HENRY VA    0548   68     250/  6/  7   N/A
WILLOUBY STN VA  0548   69     260/  4/  5 1011.2F
S CRANEY ISL VA  0548   69      20/  2/  3 1011.1F
CAPE HENRY BUOY  0542      67                N/A     2/ 8
1ST LANDING BUOY 0600   69 67              1011.3    1
CAPE CHARLES BUO 0551      66                N/A     2/ 8
64NM E OF VA BCH 0550   67 65  230/ 10/ 10 1011.3F   3/ 7   2/ 7
DUCK PIER NC     0548   72 67  220/  9/ 11 1010.4F
44100 DUCK FRF   0535      66                N/A     2/ 8
44056 DUCK FRF   0530      65                N/A     1/ 8
OREGON INLET NC  0548          200/  3/  4   N/A
HATTERAS NC      0548   75 74  120/  2/  2 1011.9F
DIAMOND SHLS NC  0550   76 77  280/ 10/ 12 1012.4S   3/ 5   3/ 5
CAPE LOOKOUT NC  0600   75     240/ 10/ 15 1011.7F
$$




USA.gov is the U.S. government's official web portal to all federal, state and local government web resources and services.